EDT,Max TemperatureF,Mean TemperatureF,Min TemperatureF,Max Dew PointF,MeanDew PointF,Min DewpointF,Max Humidity, Mean Humidity, Min Humidity, Max Sea Level PressureIn, Mean Sea Level PressureIn, Min Sea Level PressureIn, Max VisibilityMiles, Mean VisibilityMiles, Min VisibilityMiles, Max Wind SpeedMPH, Mean Wind SpeedMPH, Max Gust SpeedMPH,PrecipitationIn, CloudCover, Events, WindDirDegrees
2012-10-1,67,58,49,53,48,44,93,71,48,29.89,29.78,29.70,10,8,2,23,11,28,0.42,3,Rain,61
2012-10-2,68,61,54,63,57,52,100,91,81,29.89,29.73,29.65,10,6,2,17,7,22,0.09,8,Rain,57
2012-10-3,72,65,57,56,54,51,93,71,49,30.10,29.99,29.88,10,9,4,20,9,24,0.00,6,,192
2012-10-4,78,67,55,57,54,50,86,67,47,30.17,30.12,30.10,10,10,10,21,9,26,0.00,2,,199
2012-10-5,62,52,42,56,46,39,96,84,72,30.13,30.07,30.02,10,8,2,20,8,24,0.73,6,Rain-Thunderstorm,335
2012-10-6,55,46,36,40,36,34,92,69,46,30.16,30.11,30.07,10,10,10,15,7,20,0.00,2,Rain,290
2012-10-7,51,43,34,38,33,30,89,70,50,30.20,30.16,30.12,10,10,10,16,5,18,0.00,6,,296
2012-10-8,56,43,29,36,31,28,100,69,38,30.25,30.19,30.12,10,10,10,10,3,16,0.00,0,,180
2012-10-9,63,49,34,41,38,31,92,66,39,30.14,30.05,29.94,10,10,6,20,9,24,T,0,,183
2012-10-10,54,44,34,45,36,26,82,59,35,30.24,30.06,29.91,10,10,10,24,10,30,T,4,,276
2012-10-11,60,46,31,36,32,29,89,63,36,30.29,30.24,30.16,10,10,10,17,6,21,0.00,0,,195
2012-10-12,61,51,41,41,37,34,86,61,36,30.38,30.29,30.18,10,10,10,18,7,24,0.00,1,,78
2012-10-13,71,56,41,62,48,32,87,73,59,30.30,30.14,29.96,10,10,8,21,10,28,0.00,2,,164
2012-10-14,76,66,55,61,58,53,87,68,49,29.93,29.78,29.64,10,9,2,38,19,53,0.28,6,Rain,208
2012-10-15,61,52,43,55,45,37,100,71,42,29.96,29.87,29.80,10,9,5,20,9,25,T,5,,272
2012-10-16,67,51,35,45,41,35,100,71,42,29.99,29.89,29.75,10,10,9,18,8,22,0.00,0,,164
2012-10-17,73,63,53,55,50,45,83,62,41,29.74,29.63,29.46,10,10,6,29,14,36,T,3,Rain-Thunderstorm,174
2012-10-18,63,56,48,55,46,32,100,68,35,29.64,29.52,29.40,10,8,2,35,15,47,0.40,5,Rain,205
2012-10-19,53,50,47,45,43,36,93,74,54,29.70,29.61,29.54,10,10,6,20,11,26,0.07,8,Rain,219
2012-10-20,57,48,39,47,44,40,93,75,57,29.99,29.81,29.70,10,9,3,16,8,20,0.13,6,Rain,256
2012-10-21,69,53,37,49,43,36,100,74,47,30.10,30.04,29.99,10,8,2,15,7,18,0.00,1,,147
2012-10-22,77,66,54,58,52,47,77,63,49,30.06,30.02,29.96,10,10,10,16,9,21,T,2,,174
2012-10-23,77,68,59,59,55,52,73,60,46,30.05,29.99,29.95,10,10,4,18,7,24,0.09,6,Rain-Thunderstorm,187
2012-10-24,79,69,58,59,54,51,80,60,40,30.06,30.01,29.97,10,10,10,20,10,23,0.00,1,,175
2012-10-25,77,67,56,57,54,50,80,63,46,30.00,29.93,29.88,10,10,10,22,12,28,0.00,0,,180
2012-10-26,66,54,42,50,43,39,100,82,63,30.21,30.13,29.97,10,10,5,24,12,29,0.10,8,Rain,345
2012-10-27,55,46,36,37,34,31,89,68,46,30.18,30.15,30.10,10,10,10,18,12,24,0.00,2,,360
2012-10-28,52,44,35,34,32,31,89,70,50,30.14,30.12,30.08,10,10,10,21,12,28,0.00,3,,359
2012-10-29,51,44,37,33,27,22,76,55,34,30.11,30.03,29.83,10,10,10,33,19,40,0.00,0,,342
2012-10-30,45,43,40,43,37,26,100,75,49,29.80,29.66,29.60,10,9,5,33,21,44,0.10,7,Rain,319
2012-10-31,44,42,39,41,32,30,100,79,58,29.84,29.75,29.69,10,10,10,21,12,26,T,8,Rain,295